This is the latest recevied weather packets stored in our database for station/object SA7AHC. If no packets are shown the sender has not sent any weather packets the latest 10 day(s).
| Time | Temp. | Humidity | Pressure | Rain* | Wind** | Luminosity | Snow |
|---|---|---|---|---|---|---|---|
| 1777593520 | 6.11° C | 84% | 1027.3 hPa | 0 mm | - | 0 W/m² | - |
| 1777592914 | 6.67° C | 84% | 1027.3 hPa | 0 mm | - | 0 W/m² | - |
| 1777592315 | 6.67° C | 85% | 1027.4 hPa | 0 mm | - | 0 W/m² | - |
| 1777591707 | 6.67° C | 83% | 1027.3 hPa | 0 mm | - | 0 W/m² | - |
| 1777591106 | 6.67° C | 82% | 1027.3 hPa | 0 mm | - | 0 W/m² | - |
| 1777590509 | 6.67° C | 81% | 1027.3 hPa | 0 mm | - | 0 W/m² | - |
| 1777589902 | 7.22° C | 81% | 1027.4 hPa | 0 mm | - | 0 W/m² | - |
| 1777589301 | 6.67° C | 79% | 1027.6 hPa | 0 mm | - | 0 W/m² | - |
| 1777588701 | 7.22° C | 78% | 1027.6 hPa | 0 mm | - | 0 W/m² | - |
| 1777588102 | 7.22° C | 77% | 1027.6 hPa | 0 mm | - | 0 W/m² | - |
| 1777587495 | 7.78° C | 78% | 1027.7 hPa | 0 mm | - | 0 W/m² | - |
| 1777586888 | 7.78° C | 76% | 1027.7 hPa | 0 mm | - | 0 W/m² | - |
| 1777586289 | 7.78° C | 74% | 1027.7 hPa | 0 mm | - | 0 W/m² | - |
| 1777585692 | 7.78° C | 73% | 1027.6 hPa | 0 mm | - | 0 W/m² | - |
| 1777585086 | 8.33° C | 71% | 1027.6 hPa | 0 mm | - | 0 W/m² | - |
| 1777584480 | 8.89° C | 70% | 1027.8 hPa | 0 mm | - | 0 W/m² | - |
| 1777583878 | 9.44° C | 68% | 1027.6 hPa | 0 mm | - | 0 W/m² | - |
| 1777583277 | 9.44° C | 67% | 1027.7 hPa | 0 mm | - | 0 W/m² | - |
| 1777582664 | 10° C | 65% | 1027.7 hPa | 0 mm | - | 0 W/m² | - |
| 1777582359 | 10.56° C | 62% | 1027.6 hPa | 0 mm | - | 0 W/m² | - |
| 1777582058 | 10.56° C | 62% | 1027.6 hPa | 0 mm | - | 0 W/m² | - |
| 1777581460 | 11.67° C | 61% | 1027.7 hPa | 0 mm | - | 0 W/m² | - |
| 1777580856 | 11.67° C | 60% | 1027.7 hPa | 0 mm | - | 0 W/m² | - |
| 1777580242 | 11.67° C | 59% | 1027.9 hPa | 0 mm | - | 0 W/m² | - |
| 1777579636 | 12.22° C | 57% | 1027.9 hPa | 0 mm | - | 0 W/m² | - |
* Rain latest hour (hover to see other rain measurements)
** Current wind speed in m/s (hover to see current wind gust speed)